This is the latest recevied weather packets stored in our database for station/object WA1TYB-13. If no packets are shown the sender has not sent any weather packets the latest 10 day(s).
| Time | Temp. | Humidity | Pressure | Rain* | Wind** | Luminosity | Snow |
|---|---|---|---|---|---|---|---|
| 1777912930 | 10.56° C | 43% | 1017.5 hPa | 0 mm | - | 338 W/m² | - |
| 1777912625 | 11.11° C | 41% | 1017.1 hPa | 0 mm | - | 331 W/m² | - |
| 1777912321 | 11.67° C | 41% | 1017.5 hPa | 0 mm | - | 531 W/m² | - |
| 1777912017 | 11.67° C | 45% | 1017.4 hPa | 0 mm | - | 633 W/m² | - |
| 1777911713 | 10.56° C | 43% | 1017.6 hPa | 0 mm | - | 415 W/m² | - |
| 1777911410 | 10.56° C | 44% | 1017.5 hPa | 0 mm | - | 580 W/m² | - |
| 1777911108 | 11.11° C | 44% | 1017.7 hPa | 0 mm | - | 370 W/m² | - |
| 1777910805 | 11.11° C | 44% | 1017.5 hPa | 0 mm | - | 341 W/m² | - |
| 1777910502 | 11.11° C | 48% | 1017.8 hPa | 0 mm | - | 405 W/m² | - |
| 1777910198 | 10.56° C | 45% | 1017.7 hPa | 0 mm | - | 502 W/m² | - |
| 1777909896 | 10.56° C | 46% | 1017.6 hPa | 0 mm | - | 291 W/m² | - |
| 1777909592 | 11.11° C | 48% | 1017.7 hPa | 0 mm | - | 378 W/m² | - |
| 1777909290 | 10° C | 45% | 1017.6 hPa | 0 mm | - | 398 W/m² | - |
| 1777908987 | 10° C | 46% | 1017.7 hPa | 0 mm | - | 200 W/m² | - |
| 1777908686 | 11.11° C | 45% | 1017.8 hPa | 0 mm | - | 241 W/m² | - |
| 1777908382 | 11.11° C | 44% | 1018 hPa | 0 mm | - | 446 W/m² | - |
| 1777908078 | 10.56° C | 48% | 1018 hPa | 0 mm | - | 269 W/m² | - |
| 1777907774 | 10.56° C | 47% | 1018.1 hPa | 0 mm | - | 360 W/m² | - |
| 1777907469 | 10° C | 47% | 1018.2 hPa | 0 mm | - | 272 W/m² | - |
| 1777907167 | 9.44° C | 48% | 1018 hPa | 0 mm | - | 203 W/m² | - |
| 1777906864 | 10° C | 49% | 1018 hPa | 0 mm | - | 247 W/m² | - |
| 1777906561 | 10° C | 51% | 1018.1 hPa | 0 mm | - | 357 W/m² | - |
| 1777906256 | 9.44° C | 50% | 1017.9 hPa | 0 mm | - | 179 W/m² | - |
| 1777905953 | 9.44° C | 53% | 1018.2 hPa | 0 mm | - | 263 W/m² | - |
| 1777905650 | 8.89° C | 51% | 1017.9 hPa | 0 mm | - | 242 W/m² | - |
* Rain latest hour (hover to see other rain measurements)
** Current wind speed in m/s (hover to see current wind gust speed)